Hourly Data Report for September 17, 2017

All times are specified in Local Standard Time (LST). Add 1 hour to adjust for Daylight Saving Time where and when it is observed.

BATHURST A
NEW BRUNSWICK

47°37'47.000" N
65°44'20.000" W
58.80 m
8100505
71574
ZBF

Download Data

Hourly Data (September 2017)
Hourly Data Report for September 17, 2017
Temp Definition
°C
Dew Point Temp Definition
°C
Rel Hum Definition
%
Wind Dir Definition
10's deg

Wind Spd Definition
km/h
Visibility Definition
km
Stn Press Definition
kPa
Hmdx Definition


Wind Chill Definition


Weather Definition


TIME
00:00 Legend Double Dagger 12.8 10.0 83 16 5 24.1 101.59     LegendNANA
01:00 Legend Double Dagger 12.6 9.6 82 14 4 24.1 101.58     LegendNANA
02:00 Legend Double Dagger 12.4 8.6 77 11 5 24.1 101.56     Cloudy
03:00 Legend Double Dagger 12.1 8.2 77 12 6 24.1 101.53     LegendNANA
04:00 Legend Double Dagger 12.0 8.8 81 1 6 24.1 101.57     LegendNANA
05:00 Legend Double Dagger 11.8 9.1 83 6 3 24.1 101.56     Cloudy
06:00 Legend Double Dagger 11.8 8.8 81 36 3 24.1 101.56     LegendNANA
07:00 Legend Double Dagger 11.6 9.4 86 2 6 16.1 101.64     LegendNANA
08:00 Legend Double Dagger 11.5 9.5 87 6 5 16.1 101.62     Cloudy
09:00 Legend Double Dagger 11.0 10.3 95 5 7 9.7 101.64     Rain Showers,Fog
10:00 Legend Double Dagger 10.4 9.8 96 6 6 9.7 101.65     Drizzle,Fog
11:00 Legend Double Dagger 10.6 9.7 94 10 12 6.4 101.62     Drizzle,Fog
12:00 Legend Double Dagger 10.6 10.1 97 7 8 4.8 101.63     Drizzle,Fog
13:00 Legend Double Dagger 10.9 10.5 97 10 14 3.2 101.58     Drizzle,Fog
14:00 Legend Double Dagger 10.9 10.5 97 8 9 2.4 101.58     Drizzle,Fog
15:00 Legend Double Dagger 10.9 10.4 97 7 10 1.6 101.55     Drizzle,Fog
16:00 Legend Double Dagger 11.0 10.7 98 5 6 2.0 101.56     Drizzle,Fog
17:00 Legend Double Dagger 10.8 10.5 98 6 8 2.0 101.57     Drizzle,Fog
18:00 Legend Double Dagger 10.8 10.5 98 6 8 2.0 101.58     Drizzle,Fog
19:00 Legend Double Dagger 10.9 10.7 99 5 7 2.0 101.61     Drizzle,Fog
20:00 Legend Double Dagger 10.9 10.7 98 8 4 2.8 101.62     Drizzle,Fog
21:00 Legend Double Dagger 10.8 10.6 98 5 9 1.2 101.65     Drizzle,Fog
22:00 Legend Double Dagger 10.9 10.7 99 6 7 1.2 101.65     Drizzle,Fog
23:00 Legend Double Dagger 11.0 10.8 98 7 8 2.0 101.66     Drizzle,Fog

Notes on Data Quality.

Legend

  • E = Estimated
  • M = Missing
  • NA = Not Available
  • ‡ = Partner data that is not subject to review by the National Climate Archives
Date modified: